Regional Weather Roundup
Issued by NWS

Home | Current Version | Previous Version | Text Only | Print | Product List | Glossary On
Versions: 1 2 3 4 5 6 7 8 9 10 11 12 13 14 15 16 17 18 19 20 21 22 23 24 25 26 27 28 29 30 31 32 33 34 35 36 37 38 39 40 41 42 43 44 45 46 47 48 49 50
000
ASUS46 KSTO 010715
RWRCA

NORTHERN AND CENTRAL CA REGIONAL WEATHER ROUNDUP
NATIONAL WEATHER SERVICE SACRAMENTO CA
1200 AM PDT SAT OCT 01 2016

NOTE: FAIR INDICATES FEW OR NO CLOUDS BELOW 12,000 FEET WITH NO
SIGNIFICANT WEATHER AND/OR OBSTRUCTIONS TO VISIBILITY.

CAZ001-003-010800-
NORTHWEST AREA

CITY           SKY/WX    TMP DP  RH WIND       PRES   REMARKS
CRESCENT CITY  MOCLDY    56  49  77 SE12      30.09S
UKIAH          CLEAR     52  45  77 CALM      30.13R
$$

CAZ006-505>513-010800-
BAY AREA

CITY           SKY/WX    TMP DP  RH WIND       PRES   REMARKS
SANTA ROSA     CLEAR     53  46  77 NW3       30.09R
SAN RAFAEL     N/A       56  MM  MM MISG
NAPA           CLEAR     56  47  71 W12       30.08S
CONCORD        CLEAR     58  46  64 SW9       30.10R
OAKLAND CITY   N/A       57  MM  MM MISG
OAKLAND        PTCLDY    58  51  78 W12       30.12R
SAN FRAN CITY  N/A       55  MM  77 MISG
SAN FRAN ARPT  PTCLDY    57  50  77 W17       30.12R
LIVERMORE      CLEAR     57  49  74 SW9G18    30.10S
HAYWARD        CLEAR     59  48  67 W6        30.11S
REDWOOD CITY   N/A       57  MM  80 MISG
MOFFETT ARPT   CLEAR     57  48  72 CALM      30.13S
SAN JOSE ARPT  PTCLDY    58  49  72 NW6       30.13R
$$
CAZ034-037-514>518-010800-
CENTRAL COAST

CITY           SKY/WX    TMP DP  RH WIND       PRES   REMARKS
WATSONVILLE    CLEAR     53  49  86 NW3       30.12R
SALINAS        CLEAR     56  48  74 NW3       30.11S
MONTEREY       CLEAR     55  51  86 S3        30.13S
SAN LUIS OBISP CLEAR     54  48  80 E5        30.05R
SANTA MARIA    CLEAR     50  48  93 CALM      30.06R
$$
CAZ015-016-010800-
NORTHERN SACRAMENTO VALLEY

CITY           SKY/WX    TMP DP  RH WIND       PRES   REMARKS
REDDING        CLEAR     59  33  37 CALM      30.01R
RED BLUFF      CLEAR     65  41  41 SE5       30.03R
OROVILLE       CLEAR     59  42  53 S6        30.04R
$$
CAZ016>018-010800-
SOUTHERN SACRAMENTO VALLEY

CITY           SKY/WX    TMP DP  RH WIND       PRES   REMARKS
AUBURN         PTCLDY    55  41  58 SE10      30.07S
BEALE AFB      CLEAR     58  43  56 SE10      30.01R
LINCOLN        FAIR      59  43  55 SE9       30.03S
MARYSVILLE     CLEAR     58  45  62 SE10      30.03R
SAC INTL ARPT  CLEAR     57  45  64 SE8       30.03R
MATHER AIRPORT NOT AVBL
DOWNTOWN SAC   N/A       56  MM  MM MISG
SAC EXEC ARPT  CLEAR     56  46  69 SE3       30.05R
VACAVILLE      CLEAR     61  41  47 NW7       30.06R
TRAVIS AFB     CLEAR     54  46  74 SW10      30.04R
$$
CAZ019>021-010800-
SAN JOAQUIN VALLEY

CITY           SKY/WX    TMP DP  RH WIND       PRES   REMARKS
STOCKTON       CLEAR     57  48  72 W8        30.08R
MODESTO        CLEAR     61  46  57 NW9       30.06R
MERCED         CLEAR     60  43  53 N13       30.05R
LEMOORE        LGT RAIN  64  34  32 NW20      30.04R
FRESNO         PTCLDY    63  42  46 NW18      30.02R
HANFORD        CLEAR     65  37  35 NW20G29   30.01R
PORTERVILLE    CLEAR     65  46  50 W6        30.02R
BAKERSFIELD    CLEAR     70  45  40 NW14      30.00R
$$
CAZ011-012-071-010800-
NORTHERN MOUNTAINS

CITY           SKY/WX    TMP DP  RH WIND       PRES   REMARKS
YREKA          CLEAR     48  33  56 CALM      30.07R
MOUNT SHASTA   CLEAR     42  27  55 CALM      30.05R
ALTURAS        MOCLDY    49  32  52 N3        30.04R
$$
CAZ011-012-071-010800-
SIERRA NEVADA MTNS

CITY           SKY/WX    TMP DP  RH WIND       PRES   REMARKS
BLUE CANYON    PTCLDY    50  27  40 S9        30.14R
TRUCKEE        CLEAR     50  28  43 S12G23    30.13S
TAHOE VLY ARPT CLEAR     53  25  33 S18G35    30.12S
MAMMOTH LAKES  FAIR      55  23  28 S6        30.22F
$$




USA.gov is the U.S. government's official web portal to all federal, state and local government web resources and services.